Weather in Karl Marks nomidagi a. p.

Uzbekistan     41°30′44″N   60°38′30″E
temp.,
°C
wind,
m/s
gust,
m/s
humid.,
%
clouds,
%
prec.,
mm/h
press.,
hPa
HPBL,
m
24 may, tue
tue2423:00+24ese510190 0.0 1005189
02:00+23ese613213 0.0 1004307
05:00+21ese5122499 0.0 1003274
08:00+23ese6923100 0.0 1004332
11:00+30se10111696 0.0 10021300
14:00+33sse771196 0.0 10022090
17:00+35sse56916 0.0 10012338
20:00+31ese451198 0.0 100159
25 may, wed
wed2523:00+28sw33150 0.0 100333
02:00+26w510270 0.0 1004261
05:00+23wsw612420 0.0 1005418
08:00+23w810430 0.0 1007590
11:00+27wnw89300 0.0 10081061
14:00+31wnw78220 0.0 10091773
17:00+31wnw77210 0.0 10092143
20:00+28nw69250 0.0 1010557
26 may, thu
thu2623:00+25nw711300 0.0 1013530
02:00+22nnw611290 0.0 1014495
05:00+19nnw610330 0.0 1016425
08:00+21nnw79300 0.0 1017774
11:00+24nnw672446 0.0 10181554
14:00+27nnw66200 0.0 10162077
17:00+27nnw66200 0.0 10162690
20:00+24n78250 0.0 1017929
27 may, fri
fri2723:00+21n910295 0.0 10191092
02:00+20nnw693699 0.0 1018745
05:00+21nnw3632100 0.0 1018674
08:00+21n56295 0.0 10191075
11:00+24n55233 0.0 10192450
14:00+27n55195 0.0 10183147
17:00+27nne561855 0.0 10173433
20:00+26nne342094 0.0 1018108
28 may, sat
sat2823:00+23nne332519 0.0 101955
02:00+21ne49285 0.0 1019213
05:00+20e36315 0.0 1019107
08:00+23e45251 0.0 1021423
11:00+27se22190 0.0 10202958
14:00+29e01160 0.0 10193414
17:00+30nne22150 0.0 10173422
20:00+28ene46172 0.0 1018275